Waarnemingen

Advertentie
Mijn weer
Perpignan, Frankrijk (7747): temperatuur & dauwpunt: 21.06.2017 02:00:00 - 27.06.2017 02:00:00 (CEST)Perpignan, Frankrijk (7747): temperatuur 5cm: 21.06.2017 02:00:00 - 27.06.2017 02:00:00 (CEST)Perpignan, Frankrijk (7747): temperatuur -20cm & temperatuur -100cm: 21.06.2017 02:00:00 - 27.06.2017 02:00:00 (CEST)Perpignan, Frankrijk (7747): windsnelheid & windstoten: 21.06.2017 02:00:00 - 27.06.2017 02:00:00 (CEST)Perpignan, Frankrijk (7747): windrichting: 21.06.2017 02:00:00 - 27.06.2017 02:00:00 (CEST)Perpignan, Frankrijk (7747): luchtdruk: 21.06.2017 02:00:00 - 27.06.2017 02:00:00 (CEST)Perpignan, Frankrijk (7747): zicht: 21.06.2017 02:00:00 - 27.06.2017 02:00:00 (CEST)Perpignan, Frankrijk (7747): Zonneschijnduur: 21.06.2017 02:00:00 - 27.06.2017 02:00:00 (CEST)Perpignan, Frankrijk (7747): neerslag: 21.06.2017 02:00:00 - 27.06.2017 02:00:00 (CEST)
Datum & Tijd tt [°C] td [°C] tt 5cm [°C] tt -20cm [°C] tt -100cm [°C] ff [km/u] ff [kn] fx [km/u] fx [kn] dd ppp [hPa] vv [km] sd [min] rr [mm]
27.06.2017 02:00:00 21,4 20,6 20,7 28,1 25,9 8 4 14 7 WZW 1010,9 2,9 0 0,0
27.06.2017 01:00:00 21,8 20,8 20,7 28,3 26,0 9 5 11 6 WZW 1011,2 4,9 0 0,0
27.06.2017 00:00:00 22,0 20,8 20,8 28,6 25,9 6 3 10 5 WZW 1011,5 7 0 0,0
26.06.2017 23:00:00 22,0 20,5 21,1 28,9 25,9 2 1 9 5 WNW 1011,4 9 0 0,0
26.06.2017 22:00:00 22,2 20,8 21,7 29,0 25,9 5 3 9 5 NNO 1010,8 8 0 0,0
26.06.2017 21:00:00 22,7 21,5 22,6 29,1 25,9 5 3 11 6 NO 1010,4 9 0 0,0
26.06.2017 20:00:00 22,9 21,5 23,4 29,3 25,9 8 5 11 6 NO 1010,4 8 0 0,0
26.06.2017 19:00:00 23,1 21,9 23,6 29,4 25,9 5 3 17 9 NO 1010,2 4,4 0 0,2
26.06.2017 18:00:00 22,9 21,9 22,7 30,0 25,9 8 5 19 11 NO 1010,7 3,2 0 1,8
26.06.2017 17:00:00 22,8 21,6 22,5 29,0 25,8 10 6 21 11 N 1010,8 3,4 0 3,2
26.06.2017 16:00:00 23,1 20,4 22,5 29,5 25,9 16 9 31 17 O 1011,2 10 1 0,2
26.06.2017 15:00:00 25,5 17,7 26,6 29,3 25,9 24 13 34 18 ONO 1010,3 42 1 0,0
26.06.2017 14:00:00 27,3 17,2 28,4 29,1 25,9 14 8 23 12 NO 1010,8 41 4 0,0
26.06.2017 13:00:00 26,3 17,4 28,8 29,0 25,9 14 7 23 12 NO 1010,8 51 11 0,0
26.06.2017 12:00:00 25,8 16,6 28,1 28,9 25,9 16 9 35 19 O 1011,0 50 17 0,0
26.06.2017 11:00:00 26,5 15,8 26,3 29,0 25,9 20 11 30 16 NO 1010,6 51 13 0,0
26.06.2017 10:00:00 25,3 15,9 24,3 29,1 25,9 8 4 19 10 NNO 1012,5 60 1 0,0
26.06.2017 09:00:00 24,1 16,1 23,8 29,3 25,9 7 4 12 7 N 1011,5 35 0 0,0
26.06.2017 08:00:00 24,3 15,5 23,0 29,5 25,8 8 5 16 9 N 1011,9 41 8 0,0
26.06.2017 07:00:00 21,9 16,0 19,6 29,7 25,8 6 4 11 6 ZW 1011,6 39 0 0,0
26.06.2017 06:00:00 22,8 14,9 21,5 29,9 25,8 4 2 13 7 N 1011,3 41 0 0,0
26.06.2017 05:00:00 22,7 15,3 19,9 30,2 25,8 6 3 11 6 NNW 1011,7 43 0 0,0
26.06.2017 04:00:00 22,9 16,2 20,3 30,4 25,8 0 0 10 5 N 1011,9 47 0 0,0
26.06.2017 03:00:00 23,9 16,2 21,5 30,7 25,9 8 4 11 6 ZZW 1012,5 48 0 0,0
26.06.2017 02:00:00 24,0 16,0 21,9 30,9 25,8 8 4 16 9 W 1013,1 49 0 0,0
26.06.2017 01:00:00 24,2 16,7 22,1 31,2 25,8 7 4 10 5 WZW 1013,3 43 0 0,0
26.06.2017 00:00:00 26,0 15,4 23,4 31,4 25,8 6 4 9 5 W 1013,4 50 0 0,0
25.06.2017 23:00:00 27,4 14,8 25,1 31,6 25,8 5 3 16 8 NW 1013,7 52 0 0,0
25.06.2017 22:00:00 27,7 14,7 26,0 31,7 25,8 10 5 18 10 WNW 1013,8 57 0 0,0
25.06.2017 21:00:00 28,2 17,1 25,6 31,8 25,8 7 4 9 5 WNW 1013,5 47 0 0,0
25.06.2017 20:00:00 28,8 15,3 28,8 31,7 25,8 6 3 16 9 ZZO 1013,6 50 0 0,0
25.06.2017 19:00:00 29,9 16,3 31,4 31,4 25,8 13 7 25 13 ZO 1013,6 44 48 0,0
25.06.2017 18:00:00 31,1 15,9 33,6 30,9 25,8 18 10 27 15 OZO 1013,7 44 57 0,0
25.06.2017 17:00:00 32,7 12,9 39,6 30,4 25,8 5 3 19 10 ONO 1014,3 19 60 0,0
25.06.2017 16:00:00 31,5 13,7 40,7 29,9 25,8 9 5 19 10 WNW 1015,3 18 60 0,0
25.06.2017 15:00:00 30,6 14,7 35,6 29,4 25,8 8 5 24 13 WNW 1016,1 60 58 0,0
25.06.2017 14:00:00 29,1 14,5 35,4 29,2 25,8 16 9 32 18 WNW 1016,8 45 60 0,0
25.06.2017 13:00:00 27,4 14,4 29,8 29,1 25,7 18 10 35 19 WNW 1017,5 40 20 0,0
25.06.2017 12:00:00 25,8 14,9 27,6 29,1 25,8 16 9 33 18 WNW 1017,9 31 2 0,0
25.06.2017 11:00:00 24,1 14,8 25,3 29,2 25,8 24 13 36 19 WNW 1018,4 60 1 0,0
25.06.2017 10:00:00 23,7 14,7 24,2 29,3 25,8 21 12 40 22 NW 1017,9 60 4 0,0
25.06.2017 09:00:00 22,8 14,6 22,6 29,5 25,7 19 10 34 18 NW 1018,3 44 0 0,0
25.06.2017 08:00:00 22,3 14,7 18,8 29,7 25,7 14 8 24 13 NNW 1017,9 44 0 0,0
25.06.2017 07:00:00 22,4 14,3 21,8 30,0 25,7 11 6 23 13 WNW 1017,3 52 0 0,0
25.06.2017 06:00:00 22,4 14,0 20,9 30,3 25,7 8 4 17 9 NNW 1017,3 54 0 0,0
25.06.2017 05:00:00 22,4 14,0 21,3 30,5 25,7 6 3 24 13 WNW 1017,5 59 0 0,0
25.06.2017 04:00:00 23,2 13,9 22,5 30,8 25,7 16 8 35 19 NNW 1017,9 60 0 0,0
25.06.2017 03:00:00 23,2 14,5 22,4 31,1 25,7 17 9 39 21 NW 1017,9 60 0 0,0
25.06.2017 02:00:00 23,0 14,6 22,4 31,4 25,7 16 8 39 21 WNW 1018,1 60 0 0,0
25.06.2017 01:00:00 23,2 15,0 22,1 31,8 25,7 16 9 30 16 W 1018,2 60 0 0,0
25.06.2017 00:00:00 23,8 15,3 23,0 32,1 25,7 19 10 33 18 WNW 1018,2 60 0 0,0
24.06.2017 23:00:00 24,2 15,7 23,8 32,4 25,7 23 13 41 22 WNW 1018,0 60 0 0,0
24.06.2017 22:00:00 24,7 15,9 24,4 32,6 25,6 27 15 49 26 NW 1017,4 59 0 0,0
24.06.2017 21:00:00 25,6 16,2 25,6 32,7 25,7 28 15 53 29 NW 1016,4 59 0 0,0
24.06.2017 20:00:00 27,3 16,3 28,0 32,8 25,7 29 16 48 26 NW 1016,1 56 0 0,0
24.06.2017 19:00:00 28,3 16,9 29,4 32,6 25,7 26 14 44 24 NW 1015,7 46 11 0,0
24.06.2017 18:00:00 30,4 17,5 32,4 32,3 25,6 22 12 42 23 NW 1015,5 20 43 0,0
24.06.2017 17:00:00 30,4 18,5 34,1 31,9 25,6 8 4 23 12 ZO 1015,9 49 49 0,0
24.06.2017 16:00:00 30,9 18,3 35,0 31,3 25,6 16 9 30 16 ZO 1016,2 60 60 0,0
24.06.2017 15:00:00 30,9 17,9 37,8 30,7 25,6 19 11 30 16 ZO 1016,6 60 60 0,0
24.06.2017 14:00:00 32,0 17,9 39,6 30,3 25,6 10 6 28 15 ZO 1017,0 58 60 0,0
24.06.2017 13:00:00 31,6 17,9 41,0 29,8 25,6 7 4 20 11 ZZW 1017,4 60 60 0,0
24.06.2017 12:00:00 30,5 17,6 38,5 29,5 25,5 13 7 21 12 W 1017,7 60 60 0,0
24.06.2017 11:00:00 28,9 17,1 34,2 29,4 25,6 9 5 25 13 WNW 1018,1 19 60 0,0
24.06.2017 10:00:00 26,9 17,1 30,6 29,5 25,5 18 10 28 15 WNW 1018,7 60 60 0,0
24.06.2017 09:00:00 25,8 16,6 25,8 29,7 25,5 21 11 37 20 NW 1019,4 42 60 0,0
24.06.2017 08:00:00 24,8 16,8 23,6 29,9 25,5 20 11 38 21 NW 1019,5 30 60 0,0
24.06.2017 07:00:00 23,7 16,7 22,9 30,1 25,5 16 9 29 16 WNW 1019,7 49 5 0,0
24.06.2017 06:00:00 23,7 16,7 22,8 30,4 25,5 18 10 30 16 NW 1019,7 49 0 0,0
24.06.2017 05:00:00 23,9 16,9 22,9 30,6 25,5 19 10 32 17 NW 1019,6 53 0 0,0
24.06.2017 04:00:00 24,0 17,0 22,7 31,0 25,5 14 7 26 14 WNW 1019,5 59 0 0,0
24.06.2017 03:00:00 24,2 17,0 23,4 31,3 25,5 16 9 34 18 NW 1019,4 58 0 0,0
24.06.2017 02:00:00 24,5 17,0 23,9 31,5 25,5 21 11 39 21 NW 1019,3 60 0 0,0
24.06.2017 01:00:00 24,8 17,0 24,3 31,8 25,5 26 14 48 26 NW 1019,4 60 0 0,0
24.06.2017 00:00:00 25,1 17,3 24,8 32,1 25,5 23 12 41 22 NW 1019,5 57 0 0,0
23.06.2017 23:00:00 25,7 17,4 25,4 32,3 25,5 21 12 45 24 NW 1019,3 58 0 0,0
23.06.2017 22:00:00 26,4 17,5 26,2 32,6 25,5 21 11 40 22 NW 1018,7 55 0 0,0
23.06.2017 21:00:00 27,9 17,7 27,9 32,7 25,5 21 11 33 18 NW 1018,1 60 0 0,0
23.06.2017 20:00:00 28,8 18,0 29,6 32,6 25,4 17 9 37 20 NW 1018,1 59 0 0,0
23.06.2017 19:00:00 30,2 18,3 31,6 32,5 25,4 19 10 36 20 WNW 1017,8 54 0 0,0
23.06.2017 18:00:00 30,5 20,1 33,1 32,2 25,4 13 7 26 14 OZO 1017,8 30 43 0,0
23.06.2017 17:00:00 32,0 19,6 37,5 31,7 25,4 14 8 28 15 ZO 1018,0 56 60 0,0
23.06.2017 16:00:00 31,8 19,4 38,3 31,2 25,4 18 10 27 14 OZO 1018,3 20 60 0,0
23.06.2017 15:00:00 32,0 20,3 38,7 30,7 25,4 16 9 28 15 OZO 1018,5 57 60 0,0
23.06.2017 14:00:00 32,0 20,6 39,2 30,0 25,4 17 9 26 14 OZO 1018,8 56 60 0,0
23.06.2017 13:00:00 32,9 17,9 41,8 29,6 25,4 10 5 18 10 WNW 1019,0 20 60 0,0
23.06.2017 12:00:00 31,7 17,9 39,4 29,3 25,4 5 3 21 11 NO 1019,4 60 60 0,0
23.06.2017 11:00:00 29,8 17,9 34,7 29,2 25,4 11 6 24 13 WNW 1019,6 48 60 0,0
23.06.2017 10:00:00 28,4 17,9 31,5 29,2 25,3 16 9 29 16 NW 1019,8 60 60 0,0
23.06.2017 09:00:00 26,9 18,5 26,4 29,4 25,4 16 8 28 15 NW 1019,5 45 60 0,0
23.06.2017 08:00:00 25,4 19,1 22,5 29,6 25,4 14 7 25 13 NW 1019,1 37 60 0,0
23.06.2017 07:00:00 22,6 19,9 20,4 29,8 25,4 6 3 13 7 W 1018,5 3,2 6 0,0
23.06.2017 06:00:00 22,3 21,3 21,4 30,0 25,3 6 3 15 8 WZW 1018,2 2,5 0 0,0
23.06.2017 05:00:00 23,0 22,0 22,0 30,2 25,3 9 5 14 8 ZW 1018,1 3,7 0 0,0
23.06.2017 04:00:00 22,9 21,9 21,4 30,5 25,3 7 4 10 5 ZZW 1018,0 4,6 0 0,0
23.06.2017 03:00:00 22,9 21,7 22,5 30,8 25,3 7 4 12 7 ONO 1018,0 4,4 0 0,0
23.06.2017 02:00:00 23,2 22,0 22,6 31,1 25,3 5 3 11 6 ONO 1018,0 5 0 0,0
23.06.2017 01:00:00 23,6 21,9 22,9 31,2 25,3 5 3 13 7 ONO 1017,7 7 0 0,0
23.06.2017 00:00:00 24,6 20,9 21,7 31,6 25,3 5 3 9 5 NNO 1017,5 14 0 0,0
22.06.2017 23:00:00 25,2 21,3 22,8 31,7 25,3 5 3 8 4 W 1017,3 14 0 0,0
22.06.2017 22:00:00 25,5 21,4 23,8 31,9 25,3 5 3 6 4 W 1017,0 14 0 0,0
22.06.2017 21:00:00 26,4 21,4 26,5 32,0 25,3 3 2 15 8 OZO 1016,8 17 0 0,0
22.06.2017 20:00:00 27,7 21,5 29,5 31,9 25,2 8 4 14 8 OZO 1017,0 18 17 0,0
22.06.2017 19:00:00 28,3 21,3 31,6 31,7 25,3 10 6 19 10 O 1016,8 17 60 0,0
22.06.2017 18:00:00 29,3 21,5 34,1 31,4 25,2 11 6 19 11 ZO 1017,1 18 60 0,0
22.06.2017 17:00:00 29,6 21,3 30,9 31,1 25,2 8 5 18 10 OZO 1017,4 17 40 0,0
22.06.2017 16:00:00 27,6 20,4 30,1 30,7 25,2 8 4 23 13 O 1017,8 19 20 0,0
22.06.2017 15:00:00 28,5 20,8 36,0 30,2 25,2 13 7 24 13 ONO 1017,9 12 60 0,0
22.06.2017 14:00:00 28,3 20,6 35,4 29,7 25,2 13 7 23 12 ONO 1017,9 11 60 0,0
22.06.2017 13:00:00 27,4 20,5 35,2 29,4 25,2 14 7 21 12 O 1018,4 7 60 0,0
22.06.2017 12:00:00 27,1 20,4 32,0 29,2 25,2 13 7 23 13 ONO 1018,5 9 48 0,0
22.06.2017 11:00:00 26,1 20,7 28,7 29,2 25,2 10 5 16 9 NO 1018,3 13 14 0,0
22.06.2017 10:00:00 24,4 20,7 26,1 29,3 25,2 7 4 13 7 NO 1018,2 12 0 0,0
22.06.2017 09:00:00 23,9 20,8 25,1 29,4 25,2 6 3 11 6 ONO 1017,8 9 0 0,0
22.06.2017 08:00:00 23,4 20,5 23,8 29,6 25,2 2 1 10 5 O 1017,5 9 0 0,0
22.06.2017 07:00:00 23,1 21,0 22,8 29,8 25,2 3 2 5 3 NO 1017,1 8 0 0,0
22.06.2017 06:00:00 22,8 20,7 22,8 30,0 25,2 2 1 7 4 WNW 1016,7 8 0 0,0
22.06.2017 05:00:00 23,0 20,9 22,9 30,2 25,2 3 2 5 3 NO 1016,4 8 0 0,0
22.06.2017 04:00:00 23,0 21,1 22,4 30,4 25,1 2 1 7 4 NNO 1016,5 8 0 0,0
22.06.2017 03:00:00 23,0 21,1 22,7 30,6 25,2 3 2 6 3 NO 1016,8 9 0 0,0
22.06.2017 02:00:00 23,0 21,1 23,0 30,9 25,1 0 0 8 5 N 1016,8 8 0 0,0
22.06.2017 01:00:00 23,1 21,2 22,7 31,1 25,1 4 2 10 5 ONO 1017,0 9 0 0,0
22.06.2017 00:00:00 23,0 21,1 22,2 31,5 25,1 7 4 12 7 ONO 1016,9 8 0 0,0
21.06.2017 23:00:00 23,4 21,3 23,0 31,7 25,1 8 4 11 6 NO 1016,5 10 0 0,0
21.06.2017 22:00:00 23,8 20,7 23,6 31,9 25,1 7 4 10 6 NO 1016,2 13 0 0,0
21.06.2017 21:00:00 24,8 20,7 24,9 31,9 25,1 6 4 13 7 NO 1015,7 15 0 0,0
21.06.2017 20:00:00 26,4 19,8 27,0 31,9 25,1 10 5 16 9 ONO 1015,2 20 14 0,0
21.06.2017 19:00:00 27,7 20,3 31,5 31,6 25,1 10 5 19 10 OZO 1014,8 19 60 0,0
21.06.2017 18:00:00 28,8 20,5 34,7 31,3 25,1 10 5 22 12 OZO 1014,7 18 60 0,0
21.06.2017 17:00:00 29,6 20,5 35,5 30,7 25,1 11 6 25 13 OZO 1015,0 19 60 0,0
21.06.2017 16:00:00 30,9 19,9 37,7 30,2 25,1 13 7 21 12 O 1015,4 19 60 0,0
21.06.2017 15:00:00 30,1 20,4 37,2 29,7 25,1 11 6 21 11 O 1015,5 16 60 0,0
21.06.2017 14:00:00 29,5 20,6 37,3 29,1 25,1 9 5 20 11 O 1016,2 14 60 0,0
21.06.2017 13:00:00 28,1 20,4 34,8 28,8 25,1 6 4 16 9 O 1016,6 13 60 0,0
21.06.2017 12:00:00 27,1 20,4 30,9 28,6 25,1 10 5 19 10 O 1017,1 13 50 0,0
21.06.2017 11:00:00 25,4 20,0 27,9 28,5 25,1 7 4 13 7 O 1017,0 15 4 0,0
21.06.2017 10:00:00 24,5 20,0 25,9 28,6 25,1 6 4 12 6 NO 1016,9 13 0 0,0
21.06.2017 09:00:00 23,5 20,0 24,4 28,7 25,0 3 2 6 3 O 1016,8 12 0 0,0
21.06.2017 08:00:00 22,5 20,0 22,7 28,9 25,0 4 2 6 3 W 1016,6 10 0 0,0
21.06.2017 07:00:00 22,0 20,5 20,8 29,1 25,0 0 0 9 5 N 1016,3 7 0 0,0
21.06.2017 06:00:00 21,5 20,0 19,6 29,3 25,0 3 2 7 4 WNW 1016,2 6 0 0,0
21.06.2017 05:00:00 21,9 20,2 19,3 29,6 25,0 5 3 10 5 Z 1016,0 10 0 0,0
21.06.2017 04:00:00 21,6 19,9 19,9 29,7 25,0 2 1 6 3 OZO 1016,3 8 0 0,0
21.06.2017 03:00:00 21,9 20,0 19,7 30,0 25,0 4 2 8 4 NNO 1016,6 9 0 0,0
21.06.2017 02:00:00 22,0 20,1 19,7 30,3 25,0 0 0 6 4 N 1016,8 8 0 0,0

tt = temperatuur
td = dauwpunt
tt 5cm = temperatuur 5cm
tt -20cm = temperatuur -20cm
tt -100cm = temperatuur -100cm
ff = windsnelheid
fx = windstoten
dd = windrichting
ppp = luchtdruk
vv = zicht
sd = Zonneschijnduur
rr = neerslag

Weerstations in de omgeving